Location: ??????
(55.2000°N, 38.3000°E)
Time: 00:19:20
(UTC+00:00)

IRS-1D - Pass Details

Date: 15 November 2025
Orbit: 736 x 811 km, 98.8° (Epoch: 12 December)

Event Time Altitude Azimuth Distance (km) Brightness Sun altitude
Rises 03:48:23 0° 12° (NNE) 3,206 6.7 -10.0°
Reaches altitude 10° 03:50:51 10° 4° (N) 2,270 5.8 -9.7°
Maximum altitude 03:55:17 34° 301° (WNW) 1,214 4.0 -9.1°
Drops below altitude 10° 03:59:41 10° 237° (WSW) 2,243 5.6 -8.5°
Sets 04:02:07 0° 229° (SW) 3,162 6.4 -8.2°
